Flag for United Kingdom Weather past 2 weeks in Birmingham, England, United Kingdom

Now
64 °F

Passing clouds.


Feels Like: 64 °F
Forecast: 44 / 57 °F
Wind: 13 mph from Northeast

Location: Birmingham / Airport


UV Index: 0 (Low)

Visibility: N/A


Pressure: 29.68 "Hg

Humidity: 56%

Dew point: 48 °F

Location of BirminghamLocation

Historic Weather in Birmingham

°F

Birmingham temperature yesterday

Maximum temperature yesterday: 55 °F (at 4:50 PM)
Minimum temperature yesterday: 41 °F (at 12:50 AM)
Average temperature yesterday: 49 °F

Past Weeks' High & Low Weather Summary

 TemperatureHumidityPressure
High64 °F (Apr 21, 3:20 PM)100% (Apr 7, 5:50 AM)30.45 "Hg (Apr 7, 5:50 AM)
Low30 °F (Apr 15, 5:50 AM)44% (Apr 15, 4:20 PM)29.59 "Hg (Apr 7, 2:20 PM)
Average49 °F74%30.08 "Hg
* Reported Apr 6 4:20 PM — Apr 21 4:20 PM, Birmingham, Weather by CustomWeather, © 2014

Note: Actual official high and low records may vary slightly from our data, if they occured in-between our weather recording intervals... More about our weather records

Advertising

Historic Weather Conditions — Data for Previous 24 hours

 ConditionsComfort  
Time TempWeatherWind HumidityBarometerVisibility
4:20 PM
Apr 21
64 °FPassing clouds.9 mph60%29.68 "HgN/A
3:50 PM64 °FScattered clouds.10 mph60%29.71 "HgN/A
3:20 PM64 °FScattered clouds.9 mph64%29.71 "HgN/A
2:50 PM63 °FScattered clouds.8 mph68%29.71 "Hg5 mi
2:20 PM61 °FScattered clouds.9 mph72%29.71 "Hg5 mi
1:50 PM61 °FPartly sunny.10 mph72%29.71 "Hg4 mi
1:20 PM59 °FPartly sunny.8 mph77%29.74 "Hg4 mi
12:50 PM59 °FBroken clouds.8 mph77%29.74 "Hg3 mi
12:20 PM57 °FPartly sunny.7 mph82%29.74 "Hg2 mi
11:50 AM54 °FMostly cloudy.9 mph88%29.74 "Hg2 mi
11:20 AM55 °FPartly sunny.12 mph88%29.74 "Hg2 mi
10:50 AM54 °FPartly sunny.12 mph88%29.74 "Hg2 mi
10:20 AM52 °FPartly sunny.9 mph94%29.74 "Hg2 mi
9:50 AM52 °FPartly sunny.8 mph94%29.74 "Hg2 mi
9:20 AM50 °FFog.9 mph100%29.74 "Hg1 mi
8:50 AM50 °FFog.6 mph100%29.74 "Hg1 mi
8:20 AM48 °FFog.5 mph100%29.74 "Hg0 mi
7:50 AM48 °FFog.6 mph100%29.74 "Hg0 mi
7:20 AM45 °FFog.3 mph100%29.74 "Hg0 mi
6:50 AM41 °FFog.3 mph100%29.74 "Hg0 mi
6:20 AM37 °FFog.3 mph100%29.71 "Hg0 mi
5:50 AM36 °FChilly.3 mph100%29.71 "Hg1 mi
5:20 AM34 °FChilly.3 mph100%29.71 "Hg1 mi
4:50 AM36 °FFog.3 mph100%29.71 "Hg1 mi
4:20 AM36 °FFog.3 mph100%29.71 "Hg0 mi
3:50 AM36 °FFog.3 mph100%29.71 "Hg0 mi
3:20 AM37 °FFog.3 mph100%29.71 "Hg0 mi
2:50 AM39 °FFog.3 mph100%29.71 "Hg0 mi
2:20 AM41 °FFog.5 mph93%29.71 "Hg0 mi
1:50 AM39 °FFog.5 mph100%29.71 "Hg0 mi
1:20 AM41 °FFog.6 mph100%29.71 "Hg2 mi
12:50 AM46 °FFog.6 mph93%29.71 "Hg3 mi
12:20 AM46 °FHaze.6 mph93%29.71 "Hg2 mi
11:50 PM
Apr 20
46 °FHaze.6 mph100%29.71 "Hg3 mi
11:20 PM48 °FClear.6 mph94%29.71 "Hg4 mi
10:50 PM48 °FClear.6 mph94%29.68 "Hg4 mi
10:20 PM50 °FLight rain. Passing clouds.6 mph88%29.68 "Hg4 mi
9:50 PM50 °FLight rain. Passing clouds.8 mph88%29.68 "Hg4 mi
9:20 PM52 °FLight rain. Passing clouds.8 mph94%29.68 "Hg2 mi
8:50 PM52 °FRain. Mostly cloudy.12 mph94%29.65 "Hg2 mi
8:20 PM52 °FRain. Mostly cloudy.7 mph94%29.65 "Hg1 mi
7:50 PM52 °FRain. Partly sunny.14 mph94%29.65 "Hg1 mi
7:20 PM55 °FRain. Broken clouds.13 mph77%29.62 "Hg6 mi
6:50 PM55 °FPassing clouds.14 mph77%29.62 "Hg6 mi
6:20 PM55 °FPassing clouds.14 mph77%29.62 "Hg5 mi
5:50 PM55 °FClear.14 mph82%29.62 "Hg5 mi
5:20 PM55 °FLight rain. Passing clouds.16 mph82%29.62 "Hg5 mi
Weather by CustomWeather, © 2014

See weather overview